Location: ??????
(41.3164°N, 22.6615°E)
Time: 10:04:26
(UTC+00:00)

Cosmos 1455 Rocket - Pass Details

Date: 16 October 2021
Orbit: 604 x 630 km, 82.5° (Epoch: 07 December)

Event Time Altitude Azimuth Distance (km) Brightness Sun altitude
Rises 16:29:01 0° 160° (SSE) 2,872 6.3 -8.7°
Reaches altitude 10° 16:31:26 10° 150° (SSE) 1,977 5.4 -9.1°
Maximum altitude 16:35:13 29° 90° (E) 1,141 3.9 -9.8°
Drops below altitude 10° 16:39:03 10° 30° (NNE) 2,004 5.4 -10.6°
Sets 16:41:30 0° 19° (NNE) 2,920 6.3 -11.0°
